{"data":{"norad_id":58770,"intl_designator":"2024-011F","name":"STARLINK-31143","alt_names":[],"object_type":"PAYLOAD","status":"ACTIVE","operator":null,"country":"US","launch_date":"2024-01-14","launch_site_code":"AFWTR","launch_vehicle":null,"mission":null,"orbit_class":"UNKNOWN","rcs_meters":null,"size_class":null,"mass_kg":null,"dimensions":null,"purposes":["comms"],"wikipedia_slug":null,"has_3d_model":false,"image_url":null,"decayed_at":null,"tle_current":{"epoch":"2026-05-25T01:19:20.957088Z","epoch_age_seconds":66247,"freshness":"FRESH","line1":"1 58770U 24011F   26145.05510367  .00001303  00000+0  56118-4 0  9991","line2":"2 58770  53.1611  18.8622 0001264  83.9713 276.1432 15.30194556131961","mean_motion":15.30194556,"eccentricity":0.0001264,"inclination_deg":53.1611,"raan_deg":18.8622,"arg_perigee_deg":83.9713,"mean_anomaly_deg":276.1432,"bstar":5.6118e-5,"rev_number":13196,"period_min":94.105680506682,"perigee_km":474.36505851404,"apogee_km":476.09759002642,"semimajor_km":6853.3683242702,"source":"CELESTRAK","updated_at":"2026-05-25T13:38:18.744855Z"}}}